| time (UTC) | temp F | wind direction | speed knots | gust knots | rain 1hr in | rain 24hr in | rain mn in | humidity % | barometer mb |
| 20260505171551 | 78 | 68 | 4.3 | 13.0 | 0.00 | 0.00 | 0.00 | 48 | 1016.0 |
| 20260505170057 | 79 | 360 | 0.9 | 9.6 | 0.00 | 0.00 | 0.00 | 46 | 1016.2 |
| 20260505164546 | 79 | 290 | 2.6 | 7.0 | 0.00 | 0.00 | 0.00 | 47 | 1016.4 |
| 20260505163043 | 79 | 137 | 0.0 | 7.0 | 0.00 | 0.00 | 0.00 | 48 | 1016.5 |
| 20260505161541 | 78 | 88 | 4.3 | 7.8 | 0.00 | 0.00 | 0.00 | 49 | 1016.7 |
| 20260505153033 | 75 | 279 | 1.7 | 7.0 | 0.00 | 0.00 | 0.00 | 51 | 1017.1 |
| 20260505151531 | 74 | 50 | 2.6 | 8.7 | 0.00 | 0.00 | 0.00 | 52 | 1017.3 |
| 20260505124512 | 67 | 258 | 0.0 | 7.0 | 0.00 | 0.00 | 0.00 | 60 | 1017.3 |
| 20260505123005 | 66 | 193 | 0.9 | 7.0 | 0.00 | 0.00 | 0.00 | 61 | 1017.4 |
| 20260505121504 | 65 | 360 | 2.6 | 7.8 | 0.00 | 0.00 | 0.00 | 62 | 1017.2 |
| 20260505120000 | 65 | 360 | 2.6 | 4.3 | 0.00 | 0.00 | 0.00 | 63 | 1017.3 |
| 20260505114605 | 64 | 360 | 0.9 | 7.0 | 0.00 | 0.00 | 0.00 | 64 | 1017.2 |
| 20260505113058 | 64 | 360 | 0.0 | 2.6 | 0.00 | 0.00 | 0.00 | 65 | 1017.4 |
| 20260505111601 | 64 | 360 | 0.9 | 5.2 | 0.00 | 0.00 | 0.00 | 65 | 1017.3 |
| 20260505101554 | 62 | 360 | 2.6 | 9.6 | 0.00 | 0.00 | 0.00 | 68 | 1017.4 |
| 20260505100100 | 62 | 360 | 1.7 | 8.7 | 0.00 | 0.00 | 0.00 | 68 | 1017.1 |
| 20260505094553 | 62 | 360 | 0.9 | 4.3 | 0.00 | 0.00 | 0.00 | 68 | 1016.7 |
| 20260505093053 | 62 | 360 | 2.6 | 8.7 | 0.00 | 0.00 | 0.00 | 68 | 1016.6 |
| 20260505091552 | 62 | 360 | 1.7 | 5.2 | 0.00 | 0.00 | 0.00 | 68 | 1016.8 |
| 20260505090106 | 62 | 360 | 1.7 | 7.0 | 0.00 | 0.00 | 0.00 | 68 | 1016.8 |
| 20260505084551 | 62 | 360 | 0.0 | 7.8 | 0.00 | 0.00 | 0.00 | 67 | 1016.7 |
| 20260505083101 | 61 | 360 | 0.9 | 4.3 | 0.00 | 0.00 | 0.00 | 68 | 1016.8 |
| 20260505081551 | 61 | 360 | 0.9 | 4.3 | 0.00 | 0.00 | 0.00 | 68 | 1016.6 |
| 20260505080054 | 61 | 360 | 0.9 | 4.3 | 0.00 | 0.00 | 0.00 | 68 | 1016.7 |
| 20260505074548 | 61 | 360 | 0.0 | 3.5 | 0.00 | 0.00 | 0.00 | 68 | 1016.7 |
| 20260505073056 | 61 | 360 | 0.0 | 5.2 | 0.00 | 0.00 | 0.00 | 68 | 1016.7 |
| 20260505071547 | 60 | 360 | 0.0 | 4.3 | 0.00 | 0.00 | 0.00 | 69 | 1016.7 |
| 20260505070052 | 61 | 360 | 0.0 | 2.6 | 0.00 | 0.00 | 0.00 | 67 | 1016.7 |
| 20260505064542 | 62 | 360 | 0.9 | 4.3 | 0.00 | 0.00 | 0.00 | 65 | 1016.7 |
| 20260505063041 | 62 | 360 | 0.0 | 3.5 | 0.00 | 0.00 | 0.00 | 64 | 1016.6 |
| 20260505061539 | 62 | 360 | 0.9 | 3.5 | 0.00 | 0.00 | 0.00 | 63 | 1016.7 |
| 20260505060037 | 62 | 360 | 0.0 | 4.3 | 0.00 | 0.00 | 0.00 | 62 | 1016.9 |
| 20260505054537 | 63 | 360 | 0.9 | 2.6 | 0.00 | 0.00 | 0.00 | 62 | 1016.9 |
| 20260505053035 | 63 | 360 | 0.0 | 3.5 | 0.00 | 0.00 | 0.00 | 61 | 1016.9 |
| 20260505051537 | 63 | 360 | 0.9 | 4.3 | 0.00 | 0.00 | 0.00 | 61 | 1017.0 |
| 20260505050109 | 63 | 360 | 1.7 | 5.2 | 0.00 | 0.00 | 0.00 | 60 | 1017.0 |
| 20260505041546 | 64 | 360 | 0.0 | 5.2 | 0.00 | 0.00 | 0.00 | 57 | 1017.3 |
| 20260505040028 | 64 | 360 | 2.6 | 10.4 | 0.00 | 0.00 | 0.00 | 56 | 1017.4 |
| 20260505034525 | 65 | 360 | 1.7 | 5.2 | 0.00 | 0.00 | 0.00 | 55 | 1017.4 |
| 20260505033025 | 65 | 360 | 1.7 | 7.0 | 0.00 | 0.00 | 0.00 | 54 | 1017.3 |
| 20260505031524 | 65 | 360 | 2.6 | 11.3 | 0.00 | 0.00 | 0.00 | 53 | 1017.4 |
| 20260505030029 | 65 | 360 | 0.0 | 5.2 | 0.00 | 0.00 | 0.00 | 52 | 1017.5 |
| 20260505024525 | 65 | 360 | 0.9 | 4.3 | 0.00 | 0.00 | 0.00 | 51 | 1017.5 |
| 20260505023025 | 66 | 360 | 0.9 | 4.3 | 0.00 | 0.00 | 0.00 | 51 | 1017.6 |
| 20260505021525 | 66 | 360 | 0.0 | 2.6 | 0.00 | 0.00 | 0.00 | 51 | 1017.6 |
| 20260505020021 | 66 | 360 | 1.7 | 4.3 | 0.00 | 0.00 | 0.00 | 51 | 1017.6 |
| 20260505014520 | 66 | 360 | 0.0 | 3.5 | 0.00 | 0.00 | 0.00 | 52 | 1017.5 |
| 20260505013021 | 67 | 360 | 0.0 | 5.2 | 0.00 | 0.00 | 0.00 | 51 | 1017.4 |
| 20260505011527 | 66 | 360 | 0.9 | 7.8 | 0.00 | 0.00 | 0.00 | 52 | 1017.2 |
| 20260505010018 | 66 | 360 | 0.0 | 5.2 | 0.00 | 0.00 | 0.00 | 55 | 1017.1 |
| 20260505004532 | 66 | 360 | 1.7 | 4.3 | 0.00 | 0.00 | 0.00 | 56 | 1016.9 |
| 20260505003018 | 66 | 360 | 0.9 | 8.7 | 0.00 | 0.00 | 0.00 | 56 | 1016.7 |
| 20260505001516 | 66 | 360 | 0.9 | 4.3 | 0.00 | 0.00 | 0.00 | 56 | 1016.4 |
| 20260505000027 | 66 | 360 | 0.9 | 4.3 | 0.00 | 0.00 | 0.00 | 56 | 1016.2 |
| 20260504234517 | 66 | 360 | 1.7 | 6.1 | 0.00 | 0.00 | 0.00 | 56 | 1016.1 |
| 20260504233015 | 67 | 87 | 0.0 | 6.1 | 0.00 | 0.00 | 0.00 | 55 | 1015.9 |
| 20260504231515 | 67 | 93 | 1.7 | 6.1 | 0.00 | 0.00 | 0.00 | 55 | 1015.8 |
| 20260504230018 | 68 | 92 | 2.6 | 7.0 | 0.00 | 0.00 | 0.00 | 54 | 1015.5 |
| 20260504224513 | 69 | 83 | 2.6 | 7.0 | 0.00 | 0.00 | 0.00 | 51 | 1015.6 |
| 20260504223012 | 69 | 76 | 0.0 | 7.8 | 0.00 | 0.00 | 0.00 | 51 | 1015.6 |
| 20260504221517 | 69 | 88 | 3.5 | 8.7 | 0.00 | 0.00 | 0.00 | 50 | 1015.7 |
| 20260504220011 | 70 | 88 | 2.6 | 9.6 | 0.00 | 0.00 | 0.00 | 48 | 1016.0 |
| 20260504214513 | 72 | 280 | 0.9 | 3.5 | 0.00 | 0.00 | 0.00 | 47 | 1016.1 |
| 20260504213031 | 71 | 102 | 6.1 | 8.7 | 0.00 | 0.00 | 0.00 | 47 | 1015.9 |
| 20260504211515 | 72 | 107 | 3.5 | 7.0 | 0.00 | 0.00 | 0.00 | 44 | 1016.0 |
| 20260504210011 | 74 | 269 | 3.5 | 7.8 | 0.00 | 0.00 | 0.00 | 37 | 1015.8 |
| 20260504204507 | 75 | 86 | 3.5 | 7.0 | 0.00 | 0.00 | 0.00 | 35 | 1015.7 |
| 20260504203009 | 74 | 254 | 0.0 | 15.6 | 0.00 | 0.00 | 0.00 | 34 | 1015.8 |
| 20260504201507 | 73 | 311 | 2.6 | 7.0 | 0.00 | 0.00 | 0.00 | 34 | 1015.8 |
| 20260504200003 | 74 | 71 | 0.9 | 9.6 | 0.00 | 0.00 | 0.00 | 34 | 1016.0 |
| 20260504194502 | 73 | 240 | 5.2 | 9.6 | 0.00 | 0.00 | 0.00 | 34 | 1016.2 |
| 20260504193111 | 74 | 304 | 2.6 | 8.7 | 0.00 | 0.00 | 0.00 | 34 | 1016.4 |
| 20260504191558 | 72 | 229 | 3.5 | 12.2 | 0.00 | 0.00 | 0.00 | 35 | 1016.5 |
| 20260504190116 | 72 | 209 | 1.7 | 6.1 | 0.00 | 0.00 | 0.00 | 34 | 1016.7 |
| 20260504184606 | 70 | 323 | 0.9 | 9.6 | 0.00 | 0.00 | 0.00 | 36 | 1016.9 |
| 20260504183055 | 72 | 203 | 5.2 | 12.2 | 0.00 | 0.00 | 0.00 | 35 | 1017.0 |
| 20260504181549 | 72 | 273 | 0.0 | 7.0 | 0.00 | 0.00 | 0.00 | 36 | 1017.2 |
| 20260504180048 | 70 | 264 | 3.5 | 10.4 | 0.00 | 0.00 | 0.00 | 36 | 1017.5 |
| 20260504174545 | 70 | 176 | 0.9 | 10.4 | 0.00 | 0.00 | 0.00 | 37 | 1017.7 |
| 20260504173048 | 69 | 184 | 7.0 | 12.2 | 0.00 | 0.00 | 0.00 | 37 | 1017.9 |